User: anonymous   Login
Location: *
(44.1392°N, 4.8079°E)
Time: 23:42:03
(UTC+00:00)
Language:

FENGYUN 1C DEB - Orbit

View from above orbital plane
View from above orbital plane
View from above satellite
View from above satellite

Ground track
Ground track

The orbit data is extracted from the following two-line orbital elements,

1 31466U 99025BVE 22221.43158818  .00000110  00000-0  52259-4 0  9991
2 31466  99.1319 105.9633 0305704 178.5000 181.7163 14.16648861790278
Epoch (UTC): 09 August 2022 10:21:29
Eccentricity: 0.0305704
inclination: 99.1319°
perigee height: 616 km
apogee height: 1057 km
right ascension of ascending node: 105.9633°
argument of perigee: 178.5000°
revolutions per day: 14.16648861
mean anomaly at epoch: 181.7163°
orbit number at epoch: 79027

The dashed part of the orbit path shows where the satellite is in the earth's shadow,  

DLR